This demonstration page uses our WeatherBlox Daily Observations layout. Learn more.

Left ArrowRight Arrow

38.83388, -104.82136

Hourly Observations for May 30, 2018

Temp ( °F °C ) Dew Point ( °F °C ) Humidity (%) Winds ( mph kmh ) Pressure ( in mb ) Visibility ( mi km ) Precip ( " mm )
12:58 am 00:58 Mostly Cloudy 58 14.4 42 5.3 55 55 S 5 7 29.53 1000 10 16 0.00 0.00
1:58 am 01:58 Clear 58 14.2 41 4.8 53 53 S 6 9 29.52 1000 10 16 0.00 0.00
2:58 am 02:58 Mostly Clear 58 14.2 39 4 51 51 S 9 15 29.52 1000 10 16 0.00 0.00
3:58 am 03:58 Mostly Clear 53 11.5 41 4.8 64 64 Calm 29.54 1001 10 16 0.00 0.00
4:58 am 04:58 Clear 53 11.8 40 4.7 62 62 Calm 29.54 1000 10 16 0.00 0.00
5:58 am 05:58 Sunny 55 12.7 42 5.5 62 62 S 12 19 29.54 1000 10 16 0.00 0.00
6:58 am 06:58 Sunny 56 13.5 44 6.5 63 63 SSE 7 11 29.53 1000 10 16 0.00 0.00
7:58 am 07:58 Sunny 60 15.4 46 7.8 61 61 SSE 16 26 29.53 1000 10 16 0.00 0.00
8:58 am 08:58 Sunny 63 17.4 47 8.4 56 56 SSE 25 41 29.50 999 10 16 0.00 0.00
9:58 am 09:58 Sunny 65 18.3 48 8.7 54 54 SSE 20 31 29.49 999 10 16 0.00 0.00
10:58 am 10:58 Sunny 69 20.5 46 7.7 44 44 SSE 23 37 29.45 997 10 16 0.00 0.00
11:59 am 11:59 undefined N/A N/A N/A SE 15 24 N/A N/A 0.00 0.00
12:58 pm 12:58 Partly Cloudy 73 22.6 40 4.5 31 31 SSE 25 41 29.39 995 10 16 0.00 0.00
1:58 pm 13:58 Sunny 72 22 41 5 33 33 SE 20 31 29.39 995 10 16 0.00 0.00
2:46 pm 14:46 Sunny 73 23 39 4 29 29 S 13 20 29.36 994 10 16 0.00 0.00
2:51 pm 14:51 Partly Cloudy with Thunderstorms 72 22 41 5 33 33 S 8 13 29.38 995 10 16 0.00 0.00
2:58 pm 14:58 Partly Cloudy with Thunderstorms 73 22.5 41 4.9 32 32 SE 12 19 29.36 994 10 16 0.00 0.00
3:06 pm 15:06 Sunny 72 22 41 5 33 33 WSW 6 9 29.37 995 10 16 0.00 0.00
3:31 pm 15:31 Partly Cloudy with Light Rain 72 22 48 9 44 44 WNW 8 13 29.40 996 10 16 0.00 0.00
3:46 pm 15:46 Sunny 72 22 41 5 33 33 NNW 10 17 29.39 995 10 16 0.00 0.00
3:58 pm 15:58 Sunny 70 21.2 40 4.2 33 33 Calm 29.41 996 10 16 0.00 0.00
4:12 pm 16:12 Partly Cloudy with Light Showers 70 21 41 5 35 35 W 7 11 29.41 996 10 16 0.00 0.00
4:29 pm 16:29 Sunny 70 21 43 6 38 38 ESE 9 15 29.40 996 10 16 0.00 0.00
4:58 pm 16:58 Sunny 70 21 39 4 33 33 NNW 13 20 29.40 996 10 16 0.00 0.00
5:31 pm 17:31 Sunny 68 20 43 6 40 40 NNW 16 26 29.42 996 10 16 0.00 0.00
5:58 pm 17:58 Sunny 65 18.6 43 6.3 45 45 NNE 5 7 29.44 997 10 16 0.00 0.00
6:58 pm 18:58 Sunny 64 17.7 40 4.5 42 42 SSW 5 7 29.48 998 10 16 0.00 0.00
7:58 pm 19:58 Sunny 64 18 37 3 37 37 WNW 5 7 29.48 998 10 16 0.00 0.00
8:02 pm 20:02 Partly Cloudy with Light Showers 64 18 37 3 37 37 Calm 29.48 998 10 16 0.00 0.00
8:22 pm 20:22 Clear 64 18 37 3 37 37 Calm 29.47 998 10 16 0.00 0.00
8:58 pm 20:58 Clear 61 16.1 41 5.1 48 48 S 6 9 29.49 999 10 16 0.00 0.00
9:58 pm 21:58 Clear 61 16.2 39 4 44 44 W 3 6 29.49 999 10 16 0.00 0.00

Powered by AerisWeather